Time,TemperatureF,DewpointF,PressureIn,WindDirection,WindDirectionDegrees,WindSpeedMPH,WindSpeedGustMPH,Humidity,HourlyPrecipIn,Conditions,Clouds,dailyrainin,SoftwareType,DateUTC
2013-07-13 00:00:00,61.1,58.4,30.12,NE,39,0.0,0.0,91,0.00,,,0.00,WUHU216DAVISVP2,2013-07-13 04:00:00,
2013-07-13 00:01:00,61.1,58.4,30.12,NE,39,0.0,0.0,91,0.00,,,0.00,WUHU216DAVISVP2,2013-07-13 04:01:00,
2013-07-13 00:02:00,61.0,58.3,30.12,NE,39,0.0,0.0,91,0.00,,,0.00,WUHU216DAVISVP2,2013-07-13 04:02:00,
2013-07-13 00:07:00,60.7,58.0,30.12,NE,39,0.0,0.0,91,0.00,,,0.00,WUHU216DAVISVP2,2013-07-13 04:07:00,
2013-07-13 00:22:00,60.4,58.3,30.12,NE,39,0.0,0.0,93,0.00,,,0.00,WUHU216DAVISVP2,2013-07-13 04:22:00,
2013-07-13 00:27:00,60.6,58.8,30.13,NE,39,0.0,0.0,94,0.00,,,0.00,WUHU216DAVISVP2,2013-07-13 04:27:00,
2013-07-13 00:32:00,60.7,58.6,30.13,NE,39,0.0,0.0,93,0.00,,,0.00,WUHU216DAVISVP2,2013-07-13 04:32:00,
2013-07-13 00:44:00,61.0,58.6,30.13,NE,39,0.0,0.0,92,0.00,,,0.00,WUHU216DAVISVP2,2013-07-13 04:44:00,
2013-07-13 00:49:00,61.2,58.8,30.13,NE,39,0.0,0.0,92,0.00,,,0.00,WUHU216DAVISVP2,2013-07-13 04:49:00,
2013-07-13 00:54:00,61.4,58.7,30.13,NE,39,0.0,0.0,91,0.00,,,0.00,WUHU216DAVISVP2,2013-07-13 04:54:00,
2013-07-13 01:06:00,60.4,57.7,30.12,NE,39,0.0,0.0,91,0.00,,,0.00,WUHU216DAVISVP2,2013-07-13 05:06:00,
2013-07-13 01:11:00,60.1,57.7,30.12,NE,39,0.0,0.0,92,0.00,,,0.00,WUHU216DAVISVP2,2013-07-13 05:11:00,
2013-07-13 01:28:00,59.7,57.6,30.12,NE,39,0.0,0.0,93,0.00,,,0.00,WUHU216DAVISVP2,2013-07-13 05:28:00,
2013-07-13 01:33:00,59.6,57.5,30.13,NE,39,0.0,0.0,93,0.00,,,0.00,WUHU216DAVISVP2,2013-07-13 05:33:00,
2013-07-13 01:49:00,59.1,57.3,30.12,NE,37,0.0,0.0,94,0.00,,,0.00,WUHU216DAVISVP2,2013-07-13 05:49:00,
2013-07-13 01:54:00,58.9,57.1,30.12,NE,37,0.0,0.0,94,0.00,,,0.00,WUHU216DAVISVP2,2013-07-13 05:54:00,
2013-07-13 01:59:00,58.5,56.7,30.12,NE,37,0.0,0.0,94,0.00,,,0.00,WUHU216DAVISVP2,2013-07-13 05:59:00,
2013-07-13 02:11:00,58.7,57.2,30.13,NE,37,0.0,0.0,95,0.00,,,0.00,WUHU216DAVISVP2,2013-07-13 06:11:00,
2013-07-13 02:16:00,59.0,57.5,30.12,NE,37,0.0,0.0,95,0.00,,,0.00,WUHU216DAVISVP2,2013-07-13 06:16:00,
2013-07-13 02:33:00,59.6,57.8,30.12,NE,37,0.0,1.0,94,0.00,,,0.00,WUHU216DAVISVP2,2013-07-13 06:33:00,
2013-07-13 02:38:00,59.6,57.8,30.12,NE,37,0.0,1.0,94,0.00,,,0.00,WUHU216DAVISVP2,2013-07-13 06:38:00,
2013-07-13 02:43:00,59.3,57.2,30.12,NE,37,0.0,0.0,93,0.00,,,0.00,WUHU216DAVISVP2,2013-07-13 06:43:00,
2013-07-13 02:55:00,59.1,57.3,30.12,NE,37,0.0,0.0,94,0.00,,,0.00,WUHU216DAVISVP2,2013-07-13 06:55:00,
2013-07-13 03:00:00,59.1,57.3,30.13,NE,37,0.0,0.0,94,0.00,,,0.00,WUHU216DAVISVP2,2013-07-13 07:00:00,
2013-07-13 03:17:00,59.8,57.7,30.12,NNW,333,0.0,0.0,93,0.00,,,0.00,WUHU216DAVISVP2,2013-07-13 07:17:00,
2013-07-13 03:22:00,59.5,57.4,30.12,NNW,333,0.0,1.0,93,0.00,,,0.00,WUHU216DAVISVP2,2013-07-13 07:22:00,
2013-07-13 03:27:00,59.2,57.4,30.12,NNW,333,0.0,1.0,94,0.00,,,0.00,WUHU216DAVISVP2,2013-07-13 07:27:00,
2013-07-13 03:39:00,58.3,56.2,30.12,NNW,333,0.0,1.0,93,0.00,,,0.00,WUHU216DAVISVP2,2013-07-13 07:39:00,
2013-07-13 03:44:00,57.9,56.1,30.12,NNW,333,0.0,0.0,94,0.00,,,0.00,WUHU216DAVISVP2,2013-07-13 07:44:00,
2013-07-13 04:01:00,56.4,54.7,30.13,NNW,333,0.0,0.0,94,0.00,,,0.00,WUHU216DAVISVP2,2013-07-13 08:01:00,
2013-07-13 04:06:00,56.1,54.4,30.13,NNW,333,0.0,0.0,94,0.00,,,0.00,WUHU216DAVISVP2,2013-07-13 08:06:00,
2013-07-13 04:11:00,56.1,54.6,30.13,NNW,333,0.0,0.0,95,0.00,,,0.00,WUHU216DAVISVP2,2013-07-13 08:11:00,
2013-07-13 04:23:00,56.3,54.8,30.14,NNW,333,0.0,0.0,95,0.00,,,0.00,WUHU216DAVISVP2,2013-07-13 08:23:00,
2013-07-13 04:28:00,56.8,55.6,30.13,North,4,0.0,0.0,96,0.00,,,0.00,WUHU216DAVISVP2,2013-07-13 08:28:00,
2013-07-13 04:45:00,57.2,56.1,30.14,North,1,0.0,0.0,96,0.00,,,0.00,WUHU216DAVISVP2,2013-07-13 08:45:00,
2013-07-13 04:50:00,56.9,55.5,30.14,North,1,0.0,0.0,95,0.00,,,0.00,WUHU216DAVISVP2,2013-07-13 08:50:00,
2013-07-13 04:55:00,56.7,55.3,30.15,North,1,0.0,0.0,95,0.00,,,0.00,WUHU216DAVISVP2,2013-07-13 08:55:00,
2013-07-13 05:07:00,56.4,55.0,30.14,North,1,0.0,0.0,95,0.00,,,0.00,WUHU216DAVISVP2,2013-07-13 09:07:00,
2013-07-13 05:12:00,56.7,55.6,30.14,North,1,0.0,0.0,96,0.00,,,0.00,WUHU216DAVISVP2,2013-07-13 09:12:00,
2013-07-13 05:29:00,56.3,55.2,30.14,North,1,0.0,0.0,96,0.00,,,0.00,WUHU216DAVISVP2,2013-07-13 09:29:00,
2013-07-13 05:34:00,56.1,54.9,30.14,North,1,0.0,0.0,96,0.00,,,0.00,WUHU216DAVISVP2,2013-07-13 09:34:00,
2013-07-13 05:39:00,56.3,55.1,30.14,North,1,0.0,0.0,96,0.00,,,0.00,WUHU216DAVISVP2,2013-07-13 09:39:00,
2013-07-13 05:51:00,56.7,55.8,30.14,NNE,16,0.0,1.0,97,0.00,,,0.00,WUHU216DAVISVP2,2013-07-13 09:51:00,
2013-07-13 05:56:00,56.8,55.6,30.14,NNE,16,0.0,1.0,96,0.00,,,0.00,WUHU216DAVISVP2,2013-07-13 09:56:00,
2013-07-13 06:12:00,56.3,55.1,30.14,NE,41,0.0,0.0,96,0.00,,,0.00,WUHU216DAVISVP2,2013-07-13 10:12:00,
2013-07-13 06:17:00,56.4,55.2,30.14,NE,41,0.0,0.0,96,0.00,,,0.00,WUHU216DAVISVP2,2013-07-13 10:17:00,
2013-07-13 06:22:00,56.7,55.8,30.14,NE,41,0.0,0.0,97,0.00,,,0.00,WUHU216DAVISVP2,2013-07-13 10:22:00,
2013-07-13 06:34:00,57.0,56.1,30.14,NE,41,0.0,0.0,97,0.00,,,0.00,WUHU216DAVISVP2,2013-07-13 10:34:00,
2013-07-13 06:39:00,57.9,57.0,30.14,NNE,26,0.0,1.0,97,0.00,,,0.00,WUHU216DAVISVP2,2013-07-13 10:39:00,
2013-07-13 06:56:00,58.9,57.7,30.15,East,96,0.0,1.0,96,0.00,,,0.00,WUHU216DAVISVP2,2013-07-13 10:56:00,
2013-07-13 07:01:00,59.7,58.5,30.16,East,96,0.0,1.0,96,0.00,,,0.00,WUHU216DAVISVP2,2013-07-13 11:01:00,
2013-07-13 07:06:00,60.5,59.3,30.16,East,96,0.0,0.0,96,0.00,,,0.00,WUHU216DAVISVP2,2013-07-13 11:06:00,
2013-07-13 07:18:00,62.1,60.1,30.16,East,96,0.0,0.0,93,0.00,,,0.00,WUHU216DAVISVP2,2013-07-13 11:18:00,
2013-07-13 07:23:00,62.5,60.4,30.16,East,96,0.0,0.0,93,0.00,,,0.00,WUHU216DAVISVP2,2013-07-13 11:23:00,
2013-07-13 07:40:00,63.9,61.5,30.16,ENE,64,0.0,1.0,92,0.00,,,0.00,WUHU216DAVISVP2,2013-07-13 11:40:00,
2013-07-13 07:45:00,63.9,61.2,30.16,ENE,61,0.0,1.0,91,0.00,,,0.00,WUHU216DAVISVP2,2013-07-13 11:45:00,
2013-07-13 07:50:00,63.9,60.9,30.15,ENE,65,0.0,2.0,90,0.00,,,0.00,WUHU216DAVISVP2,2013-07-13 11:50:00,
2013-07-13 08:02:00,64.3,61.6,30.14,East,84,2.0,3.0,91,0.00,,,0.00,WUHU216DAVISVP2,2013-07-13 12:02:00,
2013-07-13 08:07:00,64.5,61.8,30.14,ENE,65,0.0,3.0,91,0.00,,,0.00,WUHU216DAVISVP2,2013-07-13 12:07:00,
2013-07-13 08:12:00,64.7,62.0,30.14,ENE,58,1.0,4.0,91,0.00,,,0.00,WUHU216DAVISVP2,2013-07-13 12:12:00,
2013-07-13 08:24:00,65.4,62.7,30.14,ENE,71,3.0,5.0,91,0.00,,,0.00,WUHU216DAVISVP2,2013-07-13 12:24:00,
2013-07-13 08:29:00,65.8,63.1,30.14,ENE,65,3.0,5.0,91,0.00,,,0.00,WUHU216DAVISVP2,2013-07-13 12:29:00,
2013-07-13 08:46:00,67.1,64.4,30.14,ENE,64,3.0,5.0,91,0.00,,,0.00,WUHU216DAVISVP2,2013-07-13 12:46:00,
2013-07-13 08:51:00,67.6,64.6,30.14,ENE,71,5.0,5.0,90,0.00,,,0.00,WUHU216DAVISVP2,2013-07-13 12:51:00,
2013-07-13 09:08:00,69.1,65.7,30.15,NE,53,1.0,6.0,89,0.00,,,0.00,WUHU216DAVISVP2,2013-07-13 13:08:00,
2013-07-13 09:13:00,69.5,66.1,30.15,NE,34,4.0,7.0,89,0.00,,,0.00,WUHU216DAVISVP2,2013-07-13 13:13:00,
2013-07-13 09:18:00,69.8,66.1,30.16,ENE,58,2.0,7.0,88,0.00,,,0.00,WUHU216DAVISVP2,2013-07-13 13:18:00,
2013-07-13 09:30:00,70.6,66.5,30.15,NE,56,4.0,6.0,87,0.00,,,0.00,WUHU216DAVISVP2,2013-07-13 13:30:00,
2013-07-13 09:35:00,70.9,66.5,30.15,NE,43,4.0,5.0,86,0.00,,,0.00,WUHU216DAVISVP2,2013-07-13 13:35:00,
2013-07-13 09:40:00,71.3,67.6,30.15,NNE,15,3.0,6.0,88,0.00,,,0.00,WUHU216DAVISVP2,2013-07-13 13:40:00,
2013-07-13 09:51:00,71.9,67.1,30.15,NE,51,2.0,5.0,85,0.00,,,0.00,WUHU216DAVISVP2,2013-07-13 13:51:00,
2013-07-13 09:56:00,72.2,67.8,30.15,NNE,33,2.0,6.0,86,0.00,,,0.00,WUHU216DAVISVP2,2013-07-13 13:56:00,
2013-07-13 10:01:00,72.5,67.0,30.15,ENE,67,6.0,7.0,83,0.00,,,0.00,WUHU216DAVISVP2,2013-07-13 14:01:00,
2013-07-13 10:13:00,73.5,68.4,30.15,NNE,33,3.0,6.0,84,0.00,,,0.00,WUHU216DAVISVP2,2013-07-13 14:13:00,
2013-07-13 10:18:00,73.7,67.6,30.15,NE,51,3.0,6.0,81,0.00,,,0.00,WUHU216DAVISVP2,2013-07-13 14:18:00,
2013-07-13 10:23:00,74.0,68.2,30.15,ENE,61,2.0,5.0,82,0.00,,,0.00,WUHU216DAVISVP2,2013-07-13 14:23:00,
2013-07-13 10:35:00,74.3,67.8,30.16,NE,51,5.0,8.0,80,0.00,,,0.00,WUHU216DAVISVP2,2013-07-13 14:35:00,
2013-07-13 10:40:00,74.3,67.5,30.16,NE,40,1.0,7.0,79,0.00,,,0.00,WUHU216DAVISVP2,2013-07-13 14:40:00,
2013-07-13 10:45:00,74.8,67.6,30.16,NE,40,4.0,7.0,78,0.00,,,0.00,WUHU216DAVISVP2,2013-07-13 14:45:00,
2013-07-13 10:57:00,75.3,67.0,30.16,ENE,61,4.0,8.0,75,0.00,,,0.00,WUHU216DAVISVP2,2013-07-13 14:57:00,
2013-07-13 11:02:00,75.6,67.6,30.16,ENE,57,5.0,7.0,76,0.00,,,0.00,WUHU216DAVISVP2,2013-07-13 15:02:00,
2013-07-13 11:07:00,75.8,68.2,30.16,ENE,57,4.0,9.0,77,0.00,,,0.00,WUHU216DAVISVP2,2013-07-13 15:07:00,
2013-07-13 11:19:00,76.1,67.8,30.16,NE,43,5.0,9.0,75,0.00,,,0.00,WUHU216DAVISVP2,2013-07-13 15:19:00,
2013-07-13 11:24:00,76.2,67.9,30.16,NE,53,6.0,9.0,75,0.00,,,0.00,WUHU216DAVISVP2,2013-07-13 15:24:00,
2013-07-13 11:41:00,77.2,68.8,30.16,ESE,120,2.0,7.0,75,0.00,,,0.00,WUHU216DAVISVP2,2013-07-13 15:41:00,
2013-07-13 11:46:00,77.5,68.0,30.16,SE,136,2.0,7.0,72,0.00,,,0.00,WUHU216DAVISVP2,2013-07-13 15:46:00,
2013-07-13 11:51:00,77.9,67.9,30.16,East,89,1.0,6.0,71,0.00,,,0.00,WUHU216DAVISVP2,2013-07-13 15:51:00,
2013-07-13 12:03:00,78.1,66.5,30.15,NE,54,3.0,7.0,67,0.00,,,0.00,WUHU216DAVISVP2,2013-07-13 16:03:00,
2013-07-13 12:08:00,78.1,67.5,30.15,SSE,153,4.0,7.0,70,0.00,,,0.00,WUHU216DAVISVP2,2013-07-13 16:08:00,
2013-07-13 12:25:00,78.4,68.2,30.16,SE,129,4.0,6.0,71,0.00,,,0.00,WUHU216DAVISVP2,2013-07-13 16:25:00,
2013-07-13 12:30:00,78.7,68.5,30.16,East,80,5.0,6.0,71,0.00,,,0.00,WUHU216DAVISVP2,2013-07-13 16:30:00,
2013-07-13 12:35:00,78.7,67.2,30.16,ENE,58,2.0,7.0,68,0.00,,,0.00,WUHU216DAVISVP2,2013-07-13 16:35:00,
2013-07-13 12:47:00,79.8,68.1,30.17,SE,132,3.0,9.0,67,0.00,,,0.00,WUHU216DAVISVP2,2013-07-13 16:47:00,
2013-07-13 12:52:00,80.0,68.7,30.16,East,99,3.0,8.0,68,0.00,,,0.00,WUHU216DAVISVP2,2013-07-13 16:52:00,
2013-07-13 12:57:00,79.4,67.7,30.16,ENE,72,3.0,8.0,67,0.00,,,0.00,WUHU216DAVISVP2,2013-07-13 16:57:00,
2013-07-13 13:09:00,79.4,67.3,30.15,NE,54,7.0,9.0,66,0.00,,,0.00,WUHU216DAVISVP2,2013-07-13 17:09:00,
2013-07-13 13:14:00,79.2,67.1,30.15,East,98,2.0,10.0,66,0.00,,,0.00,WUHU216DAVISVP2,2013-07-13 17:14:00,
2013-07-13 13:31:00,79.4,66.4,30.15,East,86,8.0,10.0,64,0.00,,,0.00,WUHU216DAVISVP2,2013-07-13 17:31:00,
2013-07-13 13:36:00,79.7,67.6,30.15,East,95,3.0,10.0,66,0.00,,,0.00,WUHU216DAVISVP2,2013-07-13 17:36:00,
2013-07-13 13:52:00,79.6,67.9,30.15,NE,49,3.0,9.0,67,0.00,,,0.00,WUHU216DAVISVP2,2013-07-13 17:52:00,
2013-07-13 13:57:00,79.4,67.9,30.15,NE,37,8.0,12.0,68,0.00,,,0.00,WUHU216DAVISVP2,2013-07-13 17:57:00,
2013-07-13 14:14:00,79.8,68.5,30.15,NE,51,7.0,11.0,68,0.00,,,0.00,WUHU216DAVISVP2,2013-07-13 18:14:00,
2013-07-13 14:19:00,79.3,68.9,30.15,ENE,75,2.0,10.0,70,0.00,,,0.00,WUHU216DAVISVP2,2013-07-13 18:19:00,
2013-07-13 14:36:00,80.3,69.4,30.15,ENE,61,6.0,11.0,69,0.00,,,0.00,WUHU216DAVISVP2,2013-07-13 18:36:00,
2013-07-13 14:41:00,80.4,68.7,30.14,ENE,64,3.0,11.0,67,0.00,,,0.00,WUHU216DAVISVP2,2013-07-13 18:41:00,
2013-07-13 14:58:00,80.3,68.1,30.14,ENE,68,4.0,8.0,66,0.00,,,0.00,WUHU216DAVISVP2,2013-07-13 18:58:00,
2013-07-13 15:03:00,80.7,67.4,30.14,ENE,75,2.0,8.0,64,0.00,,,0.00,WUHU216DAVISVP2,2013-07-13 19:03:00,
2013-07-13 15:08:00,80.6,68.0,30.14,East,100,4.0,9.0,65,0.00,,,0.00,WUHU216DAVISVP2,2013-07-13 19:08:00,
2013-07-13 15:20:00,81.4,68.5,30.14,SE,143,1.0,11.0,65,0.00,,,0.00,WUHU216DAVISVP2,2013-07-13 19:20:00,
2013-07-13 15:25:00,81.3,67.8,30.14,East,93,4.0,11.0,63,0.00,,,0.00,WUHU216DAVISVP2,2013-07-13 19:25:00,
2013-07-13 15:30:00,80.9,68.7,30.14,ESE,119,2.0,11.0,66,0.00,,,0.00,WUHU216DAVISVP2,2013-07-13 19:30:00,
2013-07-13 15:42:00,81.1,68.5,30.14,ENE,60,5.0,11.0,65,0.00,,,0.00,WUHU216DAVISVP2,2013-07-13 19:42:00,
2013-07-13 15:47:00,80.6,67.5,30.14,East,96,5.0,11.0,64,0.00,,,0.00,WUHU216DAVISVP2,2013-07-13 19:47:00,
2013-07-13 16:04:00,81.5,68.9,30.13,ENE,61,8.0,10.0,65,0.00,,,0.00,WUHU216DAVISVP2,2013-07-13 20:04:00,
2013-07-13 16:09:00,81.4,68.3,30.13,NE,51,10.0,13.0,64,0.00,,,0.00,WUHU216DAVISVP2,2013-07-13 20:09:00,
2013-07-13 16:26:00,81.8,67.8,30.13,East,80,4.0,10.0,62,0.00,,,0.00,WUHU216DAVISVP2,2013-07-13 20:26:00,
2013-07-13 16:31:00,82.0,69.1,30.13,ENE,67,9.0,11.0,65,0.00,,,0.00,WUHU216DAVISVP2,2013-07-13 20:31:00,
2013-07-13 16:36:00,81.9,68.1,30.13,ENE,71,4.0,11.0,63,0.00,,,0.00,WUHU216DAVISVP2,2013-07-13 20:36:00,
2013-07-13 16:48:00,81.7,68.6,30.13,East,85,8.0,11.0,64,0.00,,,0.00,WUHU216DAVISVP2,2013-07-13 20:48:00,
2013-07-13 16:53:00,81.7,68.1,30.13,ENE,72,6.0,13.0,63,0.00,,,0.00,WUHU216DAVISVP2,2013-07-13 20:53:00,
2013-07-13 17:10:00,82.0,68.6,30.12,ENE,60,2.0,10.0,64,0.00,,,0.00,WUHU216DAVISVP2,2013-07-13 21:10:00,
2013-07-13 17:15:00,82.2,68.3,30.12,NE,52,6.0,9.0,63,0.00,,,0.00,WUHU216DAVISVP2,2013-07-13 21:15:00,
2013-07-13 17:32:00,81.6,67.3,30.12,NE,54,3.0,12.0,62,0.00,,,0.00,WUHU216DAVISVP2,2013-07-13 21:32:00,
2013-07-13 17:37:00,81.8,68.9,30.12,East,85,2.0,11.0,65,0.00,,,0.00,WUHU216DAVISVP2,2013-07-13 21:37:00,
2013-07-13 17:42:00,81.9,67.6,30.12,ESE,105,5.0,9.0,62,0.00,,,0.00,WUHU216DAVISVP2,2013-07-13 21:42:00,
2013-07-13 17:54:00,82.1,67.8,30.12,ESE,106,6.0,9.0,62,0.00,,,0.00,WUHU216DAVISVP2,2013-07-13 21:54:00,
2013-07-13 17:59:00,82.2,68.6,30.12,ENE,67,7.0,9.0,63,0.00,,,0.00,WUHU216DAVISVP2,2013-07-13 21:59:00,
2013-07-13 18:15:00,82.1,68.0,30.12,ENE,70,4.0,11.0,62,0.00,,,0.00,WUHU216DAVISVP2,2013-07-13 22:15:00,
2013-07-13 18:20:00,82.1,69.4,30.12,ENE,67,3.0,11.0,65,0.00,,,0.00,WUHU216DAVISVP2,2013-07-13 22:20:00,
2013-07-13 18:25:00,82.1,69.4,30.12,ENE,64,2.0,9.0,65,0.00,,,0.00,WUHU216DAVISVP2,2013-07-13 22:25:00,
2013-07-13 18:37:00,81.8,67.8,30.12,ENE,70,5.0,12.0,62,0.00,,,0.00,WUHU216DAVISVP2,2013-07-13 22:37:00,
2013-07-13 18:42:00,81.9,68.3,30.12,ESE,117,3.0,11.0,63,0.00,,,0.00,WUHU216DAVISVP2,2013-07-13 22:42:00,
2013-07-13 18:59:00,81.8,67.3,30.12,East,95,5.0,9.0,61,0.00,,,0.00,WUHU216DAVISVP2,2013-07-13 22:59:00,
2013-07-13 19:04:00,81.8,68.2,30.12,ENE,58,1.0,9.0,63,0.00,,,0.00,WUHU216DAVISVP2,2013-07-13 23:04:00,
2013-07-13 19:21:00,81.4,67.8,30.12,East,89,6.0,11.0,63,0.00,,,0.00,WUHU216DAVISVP2,2013-07-13 23:21:00,
2013-07-13 19:26:00,81.3,67.8,30.12,ENE,63,6.0,10.0,63,0.00,,,0.00,WUHU216DAVISVP2,2013-07-13 23:26:00,
2013-07-13 19:43:00,81.0,67.9,30.12,ENE,71,0.0,8.0,64,0.00,,,0.00,WUHU216DAVISVP2,2013-07-13 23:43:00,
2013-07-13 19:48:00,81.1,68.5,30.13,NE,54,0.0,7.0,65,0.00,,,0.00,WUHU216DAVISVP2,2013-07-13 23:48:00,
2013-07-13 20:05:00,80.2,68.5,30.12,ENE,61,1.0,6.0,67,0.00,,,0.00,WUHU216DAVISVP2,2013-07-14 00:05:00,
2013-07-13 20:10:00,80.0,68.7,30.12,ENE,64,1.0,5.0,68,0.00,,,0.00,WUHU216DAVISVP2,2013-07-14 00:10:00,
2013-07-13 20:15:00,79.8,68.5,30.12,NE,51,0.0,5.0,68,0.00,,,0.00,WUHU216DAVISVP2,2013-07-14 00:15:00,
2013-07-13 20:27:00,79.2,68.8,30.12,ENE,58,0.0,5.0,70,0.00,,,0.00,WUHU216DAVISVP2,2013-07-14 00:27:00,
2013-07-13 20:32:00,78.9,68.5,30.12,ENE,65,0.0,4.0,70,0.00,,,0.00,WUHU216DAVISVP2,2013-07-14 00:32:00,
2013-07-13 20:49:00,77.0,68.3,30.12,NE,37,1.0,2.0,74,0.00,,,0.00,WUHU216DAVISVP2,2013-07-14 00:49:00,
2013-07-13 20:54:00,76.2,68.6,30.12,NE,40,0.0,2.0,77,0.00,,,0.00,WUHU216DAVISVP2,2013-07-14 00:54:00,
2013-07-13 21:11:00,74.8,68.3,30.13,ENE,77,0.0,1.0,80,0.00,,,0.00,WUHU216DAVISVP2,2013-07-14 01:11:00,
2013-07-13 21:16:00,74.1,68.0,30.13,ENE,71,0.0,1.0,81,0.00,,,0.00,WUHU216DAVISVP2,2013-07-14 01:16:00,
2013-07-13 21:21:00,73.5,68.1,30.13,ENE,67,0.0,1.0,83,0.00,,,0.00,WUHU216DAVISVP2,2013-07-14 01:21:00,
2013-07-13 21:33:00,72.5,67.4,30.14,ENE,68,0.0,1.0,84,0.00,,,0.00,WUHU216DAVISVP2,2013-07-14 01:33:00,
2013-07-13 21:38:00,72.3,67.2,30.13,NE,51,0.0,1.0,84,0.00,,,0.00,WUHU216DAVISVP2,2013-07-14 01:38:00,
2013-07-13 21:55:00,71.7,67.3,30.14,ENE,68,0.0,1.0,86,0.00,,,0.00,WUHU216DAVISVP2,2013-07-14 01:55:00,
2013-07-13 22:00:00,71.4,67.0,30.14,ENE,67,0.0,1.0,86,0.00,,,0.00,WUHU216DAVISVP2,2013-07-14 02:00:00,
2013-07-13 22:05:00,71.4,67.0,30.14,ENE,58,0.0,1.0,86,0.00,,,0.00,WUHU216DAVISVP2,2013-07-14 02:05:00,
2013-07-13 22:16:00,71.2,66.8,30.15,ENE,70,0.0,1.0,86,0.00,,,0.00,WUHU216DAVISVP2,2013-07-14 02:16:00,
2013-07-13 22:21:00,70.9,66.8,30.15,ENE,69,0.0,1.0,87,0.00,,,0.00,WUHU216DAVISVP2,2013-07-14 02:21:00,
2013-07-13 22:26:00,70.7,66.6,30.15,ENE,68,0.0,1.0,87,0.00,,,0.00,WUHU216DAVISVP2,2013-07-14 02:26:00,
2013-07-13 22:38:00,70.9,66.8,30.15,ENE,71,1.0,1.0,87,0.00,,,0.00,WUHU216DAVISVP2,2013-07-14 02:38:00,
2013-07-13 22:43:00,70.7,66.6,30.15,ENE,67,1.0,2.0,87,0.00,,,0.00,WUHU216DAVISVP2,2013-07-14 02:43:00,
2013-07-13 23:00:00,69.8,66.4,30.16,ENE,67,0.0,2.0,89,0.00,,,0.00,WUHU216DAVISVP2,2013-07-14 03:00:00,
2013-07-13 23:05:00,69.7,66.3,30.16,ENE,71,0.0,2.0,89,0.00,,,0.00,WUHU216DAVISVP2,2013-07-14 03:05:00,
2013-07-13 23:22:00,70.0,66.6,30.17,ENE,72,0.0,2.0,89,0.00,,,0.00,WUHU216DAVISVP2,2013-07-14 03:22:00,
2013-07-13 23:27:00,70.0,66.9,30.17,ENE,64,1.0,2.0,90,0.00,,,0.00,WUHU216DAVISVP2,2013-07-14 03:27:00,
2013-07-13 23:44:00,69.9,66.5,30.17,ENE,78,0.0,4.0,89,0.00,,,0.00,WUHU216DAVISVP2,2013-07-14 03:44:00,
2013-07-13 23:49:00,69.5,66.4,30.17,ENE,71,0.0,2.0,90,0.00,,,0.00,WUHU216DAVISVP2,2013-07-14 03:49:00,
2013-07-13 23:54:00,69.3,66.5,30.17,ENE,67,0.0,1.0,91,0.00,,,0.00,WUHU216DAVISVP2,2013-07-14 03:54:00,